This is the latest recevied weather packets stored in our database for station/object JE0GNV-13. If no packets are shown the sender has not sent any weather packets the latest 10 day(s).
| Time | Temp. | Humidity | Pressure | Rain* | Wind** | Luminosity | Snow |
|---|---|---|---|---|---|---|---|
| 1777733401 | 8.33° C | 86% | 1012.4 hPa | 0 mm | - | - | - |
| 1777732802 | 8.33° C | 85% | 1012.4 hPa | 0 mm | - | - | - |
| 1777732200 | 8.89° C | 84% | 1012.3 hPa | 0 mm | - | - | - |
| 1777731600 | 8.89° C | 84% | 1012.4 hPa | 0 mm | - | - | - |
| 1777731001 | 8.89° C | 84% | 1012.4 hPa | 0 mm | - | - | - |
| 1777730401 | 9.44° C | 83% | 1012.3 hPa | 0 mm | - | - | - |
| 1777729801 | 9.44° C | 82% | 1012.1 hPa | 0 mm | - | - | - |
| 1777729201 | 9.44° C | 81% | 1012 hPa | 0 mm | - | - | - |
| 1777728601 | 9.44° C | 81% | 1012 hPa | 0 mm | - | - | - |
| 1777728001 | 9.44° C | 80% | 1012.1 hPa | 0 mm | - | - | - |
| 1777727401 | 10° C | 79% | 1012.1 hPa | 0 mm | - | - | - |
| 1777726801 | 10° C | 78% | 1012 hPa | 0 mm | - | - | - |
| 1777726200 | 10.56° C | 75% | 1011.8 hPa | 0 mm | - | - | - |
| 1777725602 | 11.11° C | 73% | 1011.8 hPa | 0 mm | - | - | - |
| 1777725000 | 11.67° C | 71% | 1011.7 hPa | 0 mm | - | - | - |
| 1777724402 | 11.67° C | 70% | 1011.6 hPa | 0 mm | - | - | - |
| 1777723801 | 12.22° C | 69% | 1011.6 hPa | 0 mm | - | - | - |
| 1777723202 | 12.78° C | 66% | 1011.5 hPa | 0 mm | - | - | - |
| 1777722602 | 12.78° C | 66% | 1011.2 hPa | 0 mm | - | - | - |
| 1777722000 | 12.78° C | 65% | 1011.1 hPa | 0 mm | - | - | - |
| 1777721400 | 12.22° C | 65% | 1010.8 hPa | 0 mm | - | - | - |
| 1777720802 | 12.78° C | 67% | 1010.7 hPa | 0 mm | - | - | - |
| 1777720201 | 12.78° C | 64% | 1010.7 hPa | 0 mm | - | - | - |
| 1777719601 | 12.78° C | 64% | 1010.2 hPa | 0 mm | - | - | - |
| 1777719000 | 13.33° C | 63% | 1010 hPa | 0 mm | - | - | - |
* Rain latest hour (hover to see other rain measurements)
** Current wind speed in m/s (hover to see current wind gust speed)